This is the latest recevied weather packets stored in our database for station/object DL1GHN-6. If no packets are shown the sender has not sent any weather packets the latest 10 day(s).
| Time | Temp. | Humidity | Pressure | Rain* | Wind** | Luminosity | Snow |
|---|---|---|---|---|---|---|---|
| 1777632624 | 20.56° C | 34% | 1024.8 hPa | 0 mm | - | 814 W/m² | - |
| 1777632325 | 20.56° C | 31% | 1024.9 hPa | 0 mm | - | 810 W/m² | - |
| 1777632024 | 20.56° C | 38% | 1025 hPa | 0 mm | - | 807 W/m² | - |
| 1777631724 | 20.56° C | 36% | 1024.9 hPa | 0 mm | - | 802 W/m² | - |
| 1777631424 | 20° C | 32% | 1025 hPa | 0 mm | - | 798 W/m² | - |
| 1777631124 | 20° C | 35% | 1025.1 hPa | 0 mm | - | 795 W/m² | - |
| 1777630823 | 20.56° C | 36% | 1025.1 hPa | 0 mm | - | 791 W/m² | - |
| 1777630523 | 20.56° C | 34% | 1025.1 hPa | 0 mm | - | 786 W/m² | - |
| 1777630224 | 20° C | 34% | 1025.2 hPa | 0 mm | - | 782 W/m² | - |
| 1777629924 | 20° C | 34% | 1025.2 hPa | 0 mm | - | 773 W/m² | - |
| 1777629625 | 20° C | 35% | 1025.3 hPa | 0 mm | - | 770 W/m² | - |
| 1777629323 | 20° C | 35% | 1025.3 hPa | 0 mm | - | 763 W/m² | - |
| 1777629024 | 19.44° C | 36% | 1025.3 hPa | 0 mm | - | 756 W/m² | - |
| 1777628725 | 18.89° C | 37% | 1025.4 hPa | 0 mm | - | 751 W/m² | - |
| 1777628424 | 18.89° C | 37% | 1025.4 hPa | 0 mm | - | 742 W/m² | - |
| 1777628124 | 18.89° C | 35% | 1025.4 hPa | 0 mm | - | 735 W/m² | - |
| 1777627825 | 18.89° C | 43% | 1025.5 hPa | 0 mm | - | 728 W/m² | - |
| 1777627525 | 18.89° C | 36% | 1025.4 hPa | 0 mm | - | 722 W/m² | - |
| 1777627224 | 18.33° C | 39% | 1025.4 hPa | 0 mm | - | 714 W/m² | - |
| 1777626923 | 18.33° C | 36% | 1025.5 hPa | 0 mm | - | 703 W/m² | - |
| 1777626625 | 18.33° C | 37% | 1025.5 hPa | 0 mm | - | 694 W/m² | - |
| 1777626323 | 17.78° C | 44% | 1025.5 hPa | 0 mm | - | 686 W/m² | - |
| 1777626024 | 17.78° C | 37% | 1025.5 hPa | 0 mm | - | 679 W/m² | - |
| 1777625724 | 17.22° C | 35% | 1025.5 hPa | 0 mm | - | 668 W/m² | - |
| 1777625424 | 17.22° C | 37% | 1025.5 hPa | 0 mm | - | 659 W/m² | - |
* Rain latest hour (hover to see other rain measurements)
** Current wind speed in m/s (hover to see current wind gust speed)